Погода в Уразметьеве

Россия / Пермский край     56°42′50″N   56°42′12″E
темп.,
°C
ветер,
м/с
пор.,
м/с
влажн.,
%
обл.,
%
осадки,
мм/ч
давл.,
гПа
погр.,
м
25 февраля, чт
чт2523:00−24с4129799 0.1 1029278
02:00−28с239946 0.0 103050
05:00−29с229723 0.0 103119
08:00−29ссз111000 0.0 103119
11:00−23ююз12910 0.0 1031199
14:00−17юз23805 0.0 1030445
17:00−18юз35883 0.0 1029440
20:00−24ююз23977 0.0 102923
26 февраля, пт
пт2623:00−26ю23973 0.0 102935
02:00−27ююв23950 0.0 102847
05:00−27ююв23926 0.0 102755
08:00−27ююв239225 0.0 102643
11:00−21ю368712 0.0 1025315
14:00−15ю368533 0.0 1023538
17:00−14ю368667 0.0 1022710
20:00−18юв3395100 0.0 102060
27 февраля, сб
сб2723:00−18юв3789100 0.0 1019132
02:00−19юв368936 0.0 1015127
05:00−18юв499167 0.0 1013203
08:00−18вюв51186100 0.0 1009275
11:00−16вюв61093100 0.1 1007325
14:00−13вюв51093100 0.9 1005514
17:00−12вюв5990100 1.4 1005486
20:00−15в51092100 0.2 1005354
28 февраля, вс
вс2823:00−16в499498 0.3 1005330
02:00−15в489599 0.3 1005332
05:00−15всв389394 0.3 1006304
08:00−14всв389599 0.2 1006300
11:00−13всв479399 0.6 1006349
14:00−11всв4693100 0.3 1007380
17:00−10св4693100 0.6 1007373
20:00−12св489496 0.3 1009272
1 марта, пн
пн123:00−14св479595 0.6 1011277
02:00−15св479596 0.2 1012263
05:00−16св479597 0.5 1013276
08:00−17св479595 0.2 1015301
11:00−16ссв479395 0.3 1016334
14:00−13ссв479299 0.0 1016399
17:00−13с3592100 0.1 1016348
20:00−18с129761 0.0 101720